Hourly Weather Roundup
Issued by NWS Central Illinois

Home | Current Version | Previous Version | Text Only | Print | Product List | Glossary Off
Versions: 1 2 3 4 5 6 7 8 9 10 11 12 13 14 15 16 17 18 19 20 21 22 23 24 25 26 27 28 29 30 31 32 33 34 35 36 37 38 39 40 41 42 43 44 45 46 47 48 49 50

000
NZUS43 KILX 300210
HWRILX

AREA WEATHER ROUNDUP
NATIONAL WEATHER SERVICE, LINCOLN IL
900 PM CDT MON AUG 29 2016


CITY           SKY/WX    TMP DP  RH WIND       PRES   REMARKS
BLOOMINGTON    PTCLDY    78  73  84 E5        30.18R HX  81
CHAMPAIGN      CLEAR     76  72  87 CALM      30.16R
DANVILLE       CLEAR     74  73  97 CALM      30.14R
DECATUR        CLEAR     77  74  90 CALM      30.16R
EFFINGHAM      CLEAR     75  75 100 CALM      30.16R
FLORA          CLEAR     81  75  82 CALM      30.14R HX  87
GALESBURG      CLOUDY    73  70  91 E3        30.16S
JACKSONVILLE   PTCLDY    77  75  91 E3        30.14R
LACON          PTCLDY    73  69  88 CALM      30.15R
LAWRENCEVILLE  CLEAR     78  78 100 NE6       30.14R HX  81
LITCHFIELD     PTCLDY    79  73  81 E5        30.15R HX  82
$$


CITY           SKY/WX    TMP DP  RH WIND       PRES   REMARKS
LINCOLN        CLOUDY    78  75  91 CALM      30.15R HX  81
MACOMB         PTCLDY    73  71  93 NE3       30.18R
MATTOON        CLEAR     77  73  87 CALM      30.15R
MT CARMEL AP   CLEAR     76  73  87 CALM      30.13S
OLNEY-NOBLE AP CLEAR     73  73 100 CALM      30.14R
PARIS          CLEAR     76  75  96 CALM      30.16R
PEORIA         PTCLDY    76  74  93 NE6       30.16R
PONTIAC        PTCLDY    78  77  97 NE3       30.17R HX  81
RANTOUL        CLEAR     80  75  86 E3        30.16R HX  84
ROBINSON       CLEAR     72  71  98 CALM      30.15R
SPRINGFIELD    PTCLDY    80  73  79 E3        30.15R HX  84
TAYLORVILLE    CLEAR     78  74  86 E3        30.15R HX  81
$$

...REGIONAL REPORTS...


CITY           SKY/WX    TMP DP  RH WIND       PRES   REMARKS
CHICAGO O`HARE CLOUDY    75  72  90 NE6       30.17S
KANKAKEE       PTCLDY    77  74  91 NE5       30.17R
MOLINE         CLOUDY    75  72  90 N3        30.16R
MOUNT STERLING PTCLDY    74  71  92 CALM      30.15R
MOUNT VERNON   CLEAR     77  70  78 NE3       30.14R
PITTSFIELD     CLEAR     76  74  93 CALM      30.15S
QUINCY         CLEAR     77  73  87 NE5       30.14R
ROCKFORD       PTCLDY    72  70  93 CALM      30.18S
$$


CITY           SKY/WX    TMP DP  RH WIND       PRES   REMARKS
BURLINGTON     CLOUDY    74  72  93 N7        30.16R
CEDAR RAPIDS   LGT RAIN  72  72 100 S3        30.17R
DES MOINES     CLOUDY    75  70  84 NE5       30.16R
KIRKSVILLE     CLEAR     75  71  87 NE3       30.16S
OTTUMWA        TSTM      69  68  96 N10       30.21R FOG
ST LOUIS       MOCLDY    85  74  69 E8        30.13R HX  92
$$


CITY           SKY/WX    TMP DP  RH WIND       PRES   REMARKS
TERRE HAUTE    CLEAR     77  72  84 CALM      30.15R
EVANSVILLE     CLEAR     78  71  79 NE7       30.13R HX  80
INDIANAPOLIS   CLEAR     81  70  69 E7        30.16R HX  84
LAFAYETTE      CLEAR     77  73  87 E3        30.15S
MADISON        PTCLDY    76  69  79 CALM      30.16F
MILWAUKEE      MOCLDY    75  70  84 SE6       30.17F
$$





USA.gov is the U.S. government's official web portal to all federal, state and local government web resources and services.